QPF
0.01 0.00 0.00 0.00 0.00 0.00 0.00 0.00 0.01 0.01 0.00 0.00 0.00 0.00 0.00 0.00 0.00 0.00 0.00 0.00 0.00 0.00 0.00 0.00 0.01 0.01 0.02 0.02 0.02 0.02 0.01 0.00 0.00 0.00 0.01 0.01 0.01 0.01 0.01 0.02 0.01 0.01 0.00 0.00
0.01 0.00 0.00 0.00 0.00 0.00 0.00 0.00 0.00 0.00 0.00 0.00 0.00 0.00 0.00 0.00 0.00 0.00 0.00 0.00 0.00 0.00 0.00 0.01 0.02 0.02 0.02 0.02 0.01 0.01 0.01 0.01 0.00 0.00 0.01 0.01 0.01 0.01 0.01 0.01 0.02 0.01 0.01 0.01
0.02 0.00 0.01 0.01 0.00 0.00 0.00 0.00 0.00 0.01 0.00 0.00 0.00 0.00 0.00 0.00 0.00 0.00 0.00 0.01 0.00 0.00 0.00 0.01 0.01 0.01 0.01 0.01 0.01 0.02 0.02 0.02 0.01 0.01 0.00 0.00 0.01 0.01 0.01 0.01 0.01 0.01 0.01 0.01
0.02 0.01 0.02 0.01 0.00 0.00 0.00 0.00 0.00 0.00 0.00 0.00 0.00 0.00 0.00 0.00 0.00 0.00 0.00 0.01 0.01 0.00 0.00 0.00 0.00 0.01 0.01 0.01 0.01 0.02 0.02 0.02 0.02 0.01 0.01 0.01 0.01 0.01 0.01 0.01 0.01 0.02 0.02 0.02
0.03 0.02 0.01 0.00 0.00 0.00 0.00 0.01 0.00 0.01 0.00 0.00 0.00 0.00 0.00 0.00 0.00 0.00 0.00 0.00 0.00 0.00 0.00 0.01 0.01 0.01 0.01 0.01 0.01 0.01 0.01 0.01 0.02 0.02 0.01 0.01 0.01 0.01 0.01 0.01 0.01 0.02 0.02 0.03
0.04 0.03 0.02 0.01 0.00 0.00 0.01 0.01 0.01 0.01 0.00 0.00 0.00 0.01 0.01 0.00 0.00 0.00 0.00 0.00 0.00 0.00 0.00 0.00 0.01 0.01 0.01 0.01 0.01 0.01 0.01 0.01 0.01 0.02 0.01 0.01 0.01 0.01 0.01 0.01 0.01 0.02 0.02 0.03
0.03 0.03 0.02 0.01 0.00 0.01 0.02 0.02 0.01 0.01 0.00 0.00 0.00 0.00 0.00 0.00 0.00 0.00 0.00 0.00 0.00 0.00 0.00 0.00 0.00 0.01 0.01 0.01 0.01 0.01 0.01 0.01 0.01 0.01 0.01 0.01 0.01 0.02 0.02 0.02 0.01 0.01 0.01 0.02
0.01 0.02 0.02 0.01 0.01 0.01 0.02 0.01 0.01 0.01 0.00 0.00 0.00 0.00 0.00 0.00 0.00 0.00 0.00 0.00 0.00 0.00 0.00 0.00 0.00 0.00 0.00 0.00 0.00 0.00 0.01 0.01 0.01 0.01 0.01 0.02 0.03 0.03 0.02 0.02 0.02 0.01 0.02 0.02
0.01 0.01 0.00 0.00 0.00 0.01 0.01 0.01 0.01 0.01 0.00 0.00 0.00 0.00 0.00 0.00 0.00 0.00 0.00 0.00 0.00 0.00 0.00 0.00 0.00 0.00 0.00 0.00 0.00 0.01 0.01 0.01 0.01 0.01 0.01 0.02 0.02 0.03 0.03 0.03 0.03 0.02 0.02 0.02
0.00 0.00 0.00 0.00 0.00 0.00 0.00 0.00 0.00 0.00 0.00 0.00 0.00 0.00 0.00 0.00 0.00 0.01 0.00 0.00 0.00 0.00 0.00 0.00 0.00 0.00 0.00 0.00 0.01 0.01 0.01 0.01 0.01 0.02 0.02 0.02 0.02 0.02 0.03 0.03 0.03 0.03 0.02 0.02
0.00 0.00 0.00 0.00 0.00 0.00 0.00 0.00 0.01 0.01 0.00 0.00 0.00 0.00 0.00 0.00 0.00 0.00 0.00 0.00 0.00 0.00 0.00 0.00 0.00 0.00 0.00 0.00 0.00 0.00 0.00 0.01 0.01 0.02 0.03 0.03 0.03 0.02 0.03 0.03 0.03 0.04 0.04 0.03
0.01 0.00 0.00 0.00 0.00 0.00 0.01 0.01 0.01 0.01 0.00 0.00 0.00 0.00 0.00 0.00 0.00 0.01 0.01 0.00 0.00 0.00 0.00 0.00 0.00 0.00 0.00 0.00 0.00 0.00 0.00 0.00 0.01 0.01 0.01 0.02 0.02 0.03 0.03 0.03 0.03 0.04 0.04 0.04
0.00 0.00 0.00 0.00 0.00 0.00 0.01 0.01 0.01 0.00 0.00 0.00 0.00 0.00 0.00 0.00 0.00 0.01 0.01 0.01 0.01 0.00 0.00 0.00 0.00 0.00 0.00 0.00 0.00 0.00 0.00 0.00 0.01 0.01 0.02 0.02 0.02 0.02 0.03 0.03 0.03 0.03 0.03 0.04
0.00 0.00 0.00 0.00 0.01 0.01 0.01 0.01 0.01 0.00 0.00 0.00 0.01 0.01 0.01 0.01 0.01 0.01 0.01 0.01 0.00 0.00 0.00 0.00 0.00 0.00 0.00 0.00 0.00 0.00 0.00 0.01 0.01 0.01 0.01 0.02 0.02 0.02 0.03 0.03 0.03 0.03 0.03 0.03
0.00 0.01 0.01 0.01 0.01 0.01 0.01 0.01 0.00 0.00 0.00 0.00 0.01 0.01 0.01 0.01 0.01 0.01 0.01 0.01 0.01 0.01 0.00 0.00 0.00 0.00 0.00 0.00 0.00 0.00 0.00 0.01 0.01 0.01 0.01 0.01 0.02 0.02 0.02 0.03 0.04 0.04 0.04 0.04
0.01 0.01 0.01 0.01 0.01 0.01 0.01 0.01 0.00 0.00 0.00 0.00 0.00 0.00 0.00 0.00 0.01 0.01 0.01 0.03 0.02 0.01 0.00 0.00 0.00 0.00 0.00 0.00 0.00 0.00 0.01 0.01 0.01 0.00 0.01 0.01 0.01 0.02 0.03 0.03 0.03 0.04 0.04 0.04
0.02 0.02 0.01 0.02 0.02 0.02 0.02 0.01 0.01 0.01 0.01 0.01 0.01 0.01 0.01 0.01 0.01 0.01 0.02 0.04 0.04 0.03 0.02 0.01 0.01 0.01 0.00 0.00 0.01 0.01 0.01 0.01 0.01 0.01 0.01 0.01 0.01 0.01 0.02 0.03 0.04 0.04 0.04 0.05
0.02 0.02 0.02 0.02 0.03 0.04 0.03 0.02 0.01 0.01 0.01 0.01 0.01 0.01 0.02 0.02 0.01 0.01 0.02 0.04 0.05 0.04 0.04 0.04 0.03 0.02 0.02 0.01 0.01 0.01 0.01 0.01 0.01 0.01 0.01 0.01 0.01 0.01 0.01 0.02 0.03 0.03 0.03 0.03
0.01 0.02 0.02 0.02 0.03 0.04 0.04 0.03 0.02 0.01 0.02 0.02 0.02 0.03 0.03 0.03 0.02 0.02 0.03 0.04 0.04 0.04 0.04 0.04 0.03 0.03 0.02 0.02 0.01 0.01 0.01 0.01 0.01 0.01 0.01 0.01 0.01 0.01 0.01 0.02 0.02 0.02 0.03 0.03
0.03 0.03 0.03 0.03 0.03 0.03 0.02 0.02 0.02 0.01 0.02 0.02 0.03 0.02 0.02 0.03 0.03 0.03 0.03 0.03 0.03 0.02 0.02 0.02 0.01 0.01 0.01 0.01 0.01 0.01 0.01 0.01 0.01 0.01 0.01 0.01 0.01 0.02 0.02 0.03 0.03 0.03 0.03 0.03
0.03 0.03 0.04 0.04 0.03 0.02 0.02 0.01 0.01 0.01 0.01 0.01 0.02 0.02 0.02 0.02 0.03 0.03 0.03 0.02 0.02 0.02 0.01 0.01 0.01 0.01 0.01 0.01 0.01 0.01 0.01 0.01 0.01 0.01 0.01 0.01 0.01 0.01 0.02 0.02 0.02 0.03 0.03 0.03
0.02 0.03 0.03 0.03 0.02 0.02 0.01 0.01 0.01 0.01 0.01 0.01 0.01 0.01 0.01 0.01 0.01 0.01 0.02 0.02 0.02 0.03 0.02 0.02 0.01 0.01 0.01 0.01 0.01 0.01 0.01 0.01 0.01 0.01 0.01 0.01 0.01 0.01 0.01 0.02 0.02 0.02 0.02 0.02
0.03 0.03 0.02 0.02 0.01 0.02 0.02 0.01 0.01 0.01 0.01 0.01 0.01 0.01 0.01 0.01 0.01 0.01 0.02 0.02 0.02 0.02 0.02 0.01 0.02 0.02 0.02 0.01 0.01 0.01 0.01 0.02 0.02 0.02 0.01 0.01 0.01 0.01 0.01 0.01 0.01 0.01 0.02 0.02
0.02 0.01 0.01 0.01 0.01 0.01 0.01 0.01 0.01 0.01 0.01 0.00 0.00 0.00 0.00 0.00 0.01 0.01 0.02 0.02 0.02 0.02 0.02 0.02 0.02 0.02 0.02 0.02 0.02 0.02 0.02 0.02 0.02 0.02 0.01 0.01 0.01 0.01 0.01 0.01 0.01 0.01 0.02 0.02
0.01 0.01 0.01 0.01 0.01 0.00 0.00 0.00 0.01 0.01 0.00 0.00 0.00 0.00 0.00 0.00 0.01 0.01 0.02 0.02 0.02 0.02 0.03 0.03 0.03 0.03 0.03 0.02 0.02 0.02 0.02 0.02 0.02 0.02 0.02 0.01 0.01 0.01 0.01 0.01 0.01 0.01 0.01 0.01
0.01 0.01 0.01 0.02 0.01 0.00 0.00 0.01 0.01 0.01 0.01 0.01 0.01 0.00 0.00 0.01 0.01 0.01 0.02 0.02 0.02 0.02 0.02 0.02 0.02 0.03 0.03 0.03 0.03 0.02 0.02 0.02 0.02 0.01 0.01 0.01 0.01 0.01 0.01 0.01 0.01 0.01 0.01 0.01
0.02 0.01 0.01 0.01 0.01 0.01 0.01 0.01 0.01 0.01 0.01 0.01 0.01 0.01 0.01 0.01 0.01 0.01 0.01 0.02 0.02 0.01 0.01 0.02 0.02 0.03 0.03 0.03 0.02 0.02 0.02 0.01 0.01 0.01 0.01 0.01 0.01 0.01 0.01 0.01 0.01 0.02 0.02 0.02
MSLP
1011.63 1012.00 1012.29 1012.51 1012.64 1012.70 1012.68 1012.61 1012.51 1012.40 1012.30 1012.26 1012.30 1012.45 1012.71 1013.09 1013.56 1014.11 1014.69 1015.27 1015.80 1016.27 1016.67 1016.99 1017.27 1017.50 1017.73 1017.97 1018.21 1018.47 1018.74 1018.98 1019.20 1019.37 1019.49 1019.57 1019.61 1019.64 1019.69 1019.76 1019.86 1019.99 1020.15 1020.32
1011.27 1011.61 1011.84 1011.96 1011.98 1011.93 1011.81 1011.66 1011.52 1011.41 1011.36 1011.41 1011.57 1011.86 1012.26 1012.76 1013.33 1013.94 1014.56 1015.15 1015.68 1016.14 1016.53 1016.86 1017.15 1017.41 1017.68 1017.97 1018.28 1018.60 1018.92 1019.22 1019.49 1019.71 1019.87 1019.98 1020.06 1020.11 1020.17 1020.24 1020.33 1020.44 1020.57 1020.71
1011.08 1011.35 1011.49 1011.51 1011.42 1011.25 1011.03 1010.81 1010.62 1010.50 1010.48 1010.60 1010.85 1011.23 1011.73 1012.32 1012.96 1013.61 1014.25 1014.84 1015.37 1015.82 1016.22 1016.56 1016.89 1017.21 1017.54 1017.90 1018.28 1018.68 1019.07 1019.44 1019.76 1020.02 1020.22 1020.36 1020.45 1020.51 1020.56 1020.61 1020.68 1020.76 1020.86 1020.95
1010.98 1011.17 1011.22 1011.13 1010.93 1010.65 1010.34 1010.04 1009.80 1009.67 1009.67 1009.83 1010.14 1010.59 1011.15 1011.79 1012.47 1013.15 1013.80 1014.40 1014.93 1015.39 1015.81 1016.19 1016.57 1016.96 1017.37 1017.81 1018.28 1018.75 1019.21 1019.63 1020.00 1020.30 1020.52 1020.67 1020.76 1020.82 1020.85 1020.88 1020.91 1020.95 1021.01 1021.07
1010.88 1010.98 1010.92 1010.73 1010.43 1010.06 1009.67 1009.32 1009.05 1008.91 1008.92 1009.11 1009.46 1009.95 1010.56 1011.24 1011.94 1012.64 1013.30 1013.90 1014.45 1014.94 1015.39 1015.82 1016.27 1016.73 1017.22 1017.75 1018.29 1018.82 1019.34 1019.80 1020.20 1020.51 1020.74 1020.89 1020.97 1021.01 1021.02 1021.02 1021.02 1021.03 1021.05 1021.07
1010.64 1010.65 1010.51 1010.23 1009.86 1009.43 1009.00 1008.62 1008.35 1008.21 1008.25 1008.46 1008.84 1009.37 1010.01 1010.70 1011.43 1012.14 1012.82 1013.44 1014.01 1014.53 1015.03 1015.53 1016.03 1016.57 1017.13 1017.72 1018.31 1018.89 1019.43 1019.91 1020.31 1020.62 1020.84 1020.97 1021.04 1021.07 1021.06 1021.04 1021.03 1021.02 1021.02 1021.03
1010.17 1010.10 1009.90 1009.57 1009.17 1008.73 1008.30 1007.94 1007.69 1007.59 1007.66 1007.91 1008.32 1008.88 1009.53 1010.25 1010.99 1011.71 1012.41 1013.05 1013.65 1014.22 1014.77 1015.32 1015.88 1016.47 1017.08 1017.70 1018.32 1018.90 1019.44 1019.91 1020.29 1020.58 1020.78 1020.90 1020.97 1020.99 1020.99 1020.98 1020.97 1020.98 1020.98 1020.99
1009.43 1009.31 1009.08 1008.75 1008.37 1007.96 1007.58 1007.28 1007.09 1007.05 1007.17 1007.46 1007.91 1008.49 1009.16 1009.89 1010.64 1011.38 1012.09 1012.76 1013.39 1014.00 1014.59 1015.18 1015.79 1016.40 1017.03 1017.65 1018.26 1018.82 1019.33 1019.76 1020.11 1020.37 1020.55 1020.67 1020.74 1020.79 1020.82 1020.85 1020.89 1020.93 1020.97 1021.01
1008.45 1008.32 1008.10 1007.81 1007.49 1007.17 1006.88 1006.68 1006.58 1006.62 1006.81 1007.15 1007.63 1008.23 1008.91 1009.64 1010.39 1011.13 1011.85 1012.53 1013.19 1013.82 1014.44 1015.06 1015.68 1016.30 1016.92 1017.52 1018.09 1018.61 1019.06 1019.44 1019.75 1019.99 1020.16 1020.30 1020.40 1020.50 1020.59 1020.70 1020.81 1020.93 1021.04 1021.13
1007.34 1007.22 1007.05 1006.84 1006.62 1006.42 1006.26 1006.17 1006.19 1006.32 1006.58 1006.97 1007.47 1008.07 1008.74 1009.46 1010.19 1010.92 1011.63 1012.32 1012.98 1013.63 1014.26 1014.88 1015.50 1016.11 1016.69 1017.25 1017.77 1018.23 1018.64 1018.97 1019.25 1019.47 1019.66 1019.82 1019.99 1020.16 1020.35 1020.56 1020.78 1020.99 1021.19 1021.35
1006.21 1006.14 1006.04 1005.94 1005.85 1005.78 1005.76 1005.80 1005.93 1006.15 1006.47 1006.89 1007.40 1007.99 1008.63 1009.31 1010.00 1010.70 1011.39 1012.06 1012.71 1013.35 1013.98 1014.60 1015.20 1015.78 1016.33 1016.84 1017.31 1017.72 1018.08 1018.39 1018.65 1018.88 1019.10 1019.32 1019.57 1019.84 1020.14 1020.47 1020.80 1021.13 1021.43 1021.68
1005.19 1005.17 1005.17 1005.18 1005.22 1005.29 1005.41 1005.57 1005.80 1006.09 1006.45 1006.88 1007.38 1007.93 1008.52 1009.15 1009.79 1010.43 1011.08 1011.72 1012.35 1012.97 1013.58 1014.18 1014.76 1015.31 1015.83 1016.31 1016.74 1017.13 1017.46 1017.76 1018.03 1018.30 1018.57 1018.87 1019.21 1019.59 1020.01 1020.45 1020.91 1021.35 1021.74 1022.07
1004.34 1004.38 1004.46 1004.59 1004.75 1004.95 1005.18 1005.45 1005.75 1006.10 1006.48 1006.90 1007.37 1007.87 1008.40 1008.96 1009.53 1010.12 1010.71 1011.31 1011.91 1012.50 1013.09 1013.67 1014.23 1014.76 1015.26 1015.73 1016.14 1016.52 1016.86 1017.18 1017.49 1017.81 1018.15 1018.54 1018.97 1019.45 1019.98 1020.53 1021.08 1021.61 1022.09 1022.49
1003.68 1003.77 1003.93 1004.15 1004.41 1004.72 1005.05 1005.39 1005.75 1006.13 1006.52 1006.93 1007.35 1007.80 1008.27 1008.76 1009.26 1009.79 1010.33 1010.88 1011.44 1012.01 1012.58 1013.14 1013.68 1014.21 1014.71 1015.17 1015.60 1015.99 1016.36 1016.72 1017.09 1017.47 1017.89 1018.35 1018.87 1019.44 1020.04 1020.67 1021.30 1021.89 1022.42 1022.87
1003.16 1003.30 1003.52 1003.82 1004.17 1004.55 1004.95 1005.35 1005.75 1006.15 1006.54 1006.93 1007.32 1007.72 1008.14 1008.57 1009.03 1009.50 1010.00 1010.51 1011.04 1011.59 1012.14 1012.68 1013.22 1013.75 1014.25 1014.73 1015.18 1015.61 1016.03 1016.44 1016.87 1017.31 1017.80 1018.33 1018.91 1019.54 1020.20 1020.87 1021.53 1022.15 1022.72 1023.19
1002.73 1002.91 1003.19 1003.55 1003.96 1004.40 1004.85 1005.30 1005.73 1006.14 1006.53 1006.92 1007.29 1007.67 1008.06 1008.46 1008.89 1009.34 1009.80 1010.29 1010.80 1011.33 1011.86 1012.40 1012.94 1013.47 1013.99 1014.49 1014.97 1015.44 1015.90 1016.37 1016.85 1017.35 1017.89 1018.47 1019.08 1019.74 1020.41 1021.09 1021.76 1022.38 1022.94 1023.43
1002.35 1002.57 1002.89 1003.29 1003.75 1004.24 1004.73 1005.21 1005.67 1006.10 1006.51 1006.91 1007.29 1007.68 1008.07 1008.47 1008.90 1009.34 1009.81 1010.29 1010.79 1011.31 1011.84 1012.37 1012.90 1013.43 1013.95 1014.47 1014.98 1015.48 1015.98 1016.49 1017.01 1017.55 1018.12 1018.72 1019.35 1020.00 1020.66 1021.32 1021.96 1022.56 1023.10 1023.58
1001.99 1002.25 1002.61 1003.06 1003.55 1004.07 1004.59 1005.10 1005.58 1006.04 1006.49 1006.91 1007.33 1007.76 1008.18 1008.62 1009.08 1009.55 1010.03 1010.53 1011.04 1011.55 1012.07 1012.59 1013.12 1013.64 1014.16 1014.68 1015.20 1015.73 1016.25 1016.78 1017.33 1017.88 1018.46 1019.05 1019.66 1020.29 1020.91 1021.53 1022.13 1022.69 1023.20 1023.65
1001.67 1001.98 1002.38 1002.85 1003.37 1003.91 1004.45 1004.98 1005.49 1005.99 1006.47 1006.95 1007.43 1007.91 1008.40 1008.90 1009.41 1009.93 1010.45 1010.98 1011.50 1012.02 1012.54 1013.05 1013.56 1014.07 1014.58 1015.09 1015.61 1016.13 1016.66 1017.19 1017.74 1018.29 1018.86 1019.43 1020.01 1020.59 1021.17 1021.73 1022.28 1022.79 1023.27 1023.69
1001.44 1001.79 1002.23 1002.72 1003.26 1003.80 1004.35 1004.89 1005.43 1005.95 1006.48 1007.01 1007.54 1008.10 1008.66 1009.24 1009.82 1010.40 1010.98 1011.54 1012.09 1012.63 1013.14 1013.65 1014.15 1014.64 1015.13 1015.62 1016.12 1016.63 1017.15 1017.67 1018.20 1018.73 1019.27 1019.82 1020.36 1020.89 1021.42 1021.93 1022.43 1022.89 1023.33 1023.73
1001.33 1001.72 1002.19 1002.69 1003.23 1003.76 1004.30 1004.84 1005.38 1005.92 1006.48 1007.05 1007.65 1008.27 1008.91 1009.56 1010.22 1010.87 1011.51 1012.12 1012.70 1013.25 1013.77 1014.28 1014.76 1015.24 1015.71 1016.18 1016.66 1017.15 1017.64 1018.15 1018.66 1019.17 1019.69 1020.20 1020.70 1021.19 1021.68 1022.14 1022.59 1023.02 1023.42 1023.79
1001.36 1001.79 1002.27 1002.77 1003.28 1003.80 1004.31 1004.82 1005.34 1005.88 1006.45 1007.06 1007.70 1008.37 1009.08 1009.80 1010.52 1011.23 1011.93 1012.58 1013.20 1013.78 1014.31 1014.82 1015.30 1015.77 1016.22 1016.68 1017.15 1017.62 1018.10 1018.59 1019.08 1019.57 1020.06 1020.55 1021.02 1021.49 1021.93 1022.36 1022.78 1023.17 1023.54 1023.89
1001.51 1001.97 1002.45 1002.93 1003.40 1003.87 1004.34 1004.81 1005.30 1005.82 1006.38 1006.99 1007.66 1008.37 1009.12 1009.88 1010.66 1011.42 1012.16 1012.86 1013.51 1014.11 1014.67 1015.19 1015.68 1016.15 1016.61 1017.06 1017.52 1017.99 1018.46 1018.94 1019.42 1019.91 1020.38 1020.85 1021.31 1021.75 1022.18 1022.59 1022.97 1023.34 1023.68 1024.00
1001.74 1002.21 1002.67 1003.12 1003.55 1003.96 1004.37 1004.78 1005.23 1005.72 1006.26 1006.86 1007.52 1008.25 1009.01 1009.81 1010.61 1011.41 1012.18 1012.91 1013.59 1014.22 1014.80 1015.34 1015.85 1016.33 1016.80 1017.27 1017.74 1018.21 1018.69 1019.18 1019.66 1020.15 1020.62 1021.09 1021.54 1021.97 1022.39 1022.78 1023.15 1023.49 1023.81 1024.10
1001.98 1002.44 1002.88 1003.28 1003.66 1004.01 1004.36 1004.72 1005.12 1005.57 1006.08 1006.66 1007.31 1008.03 1008.79 1009.59 1010.40 1011.21 1011.99 1012.74 1013.44 1014.09 1014.70 1015.26 1015.80 1016.31 1016.80 1017.29 1017.79 1018.28 1018.78 1019.28 1019.78 1020.28 1020.76 1021.24 1021.69 1022.12 1022.53 1022.91 1023.27 1023.59 1023.89 1024.15
1002.16 1002.61 1003.01 1003.37 1003.69 1004.00 1004.30 1004.61 1004.97 1005.38 1005.86 1006.42 1007.05 1007.74 1008.49 1009.27 1010.07 1010.86 1011.64 1012.39 1013.09 1013.76 1014.39 1014.98 1015.54 1016.08 1016.61 1017.14 1017.66 1018.19 1018.72 1019.25 1019.77 1020.29 1020.79 1021.27 1021.73 1022.17 1022.58 1022.95 1023.30 1023.61 1023.88 1024.11
1002.24 1002.65 1003.02 1003.34 1003.62 1003.89 1004.16 1004.45 1004.78 1005.18 1005.64 1006.17 1006.77 1007.44 1008.16 1008.91 1009.67 1010.44 1011.19 1011.92 1012.61 1013.28 1013.91 1014.52 1015.11 1015.69 1016.26 1016.83 1017.40 1017.96 1018.53 1019.09 1019.64 1020.18 1020.70 1021.19 1021.66 1022.10 1022.51 1022.88 1023.21 1023.51 1023.76 1023.97
Thickness
5684 5690 5690 5688 5689 5690 5685 5684 5678 5683 5686 5691 5696 5696 5697 5697 5696 5694 5692 5692 5690 5689 5688 5688 5687 5687 5686 5684 5683 5681 5679 5677 5676 5675 5674 5671 5669 5667 5665 5662 5660 5657 5654 5652
5673 5682 5684 5681 5685 5685 5683 5683 5681 5681 5680 5694 5696 5693 5689 5688 5686 5682 5681 5682 5682 5681 5680 5679 5679 5678 5677 5676 5675 5674 5672 5670 5669 5667 5666 5663 5662 5660 5658 5656 5654 5651 5649 5646
5659 5673 5672 5667 5681 5681 5679 5681 5677 5670 5674 5683 5681 5679 5677 5678 5677 5674 5673 5673 5673 5672 5671 5671 5671 5670 5669 5669 5668 5666 5663 5661 5660 5658 5657 5656 5655 5653 5650 5648 5646 5644 5642 5640
5651 5655 5643 5669 5688 5686 5677 5676 5677 5673 5672 5672 5671 5671 5671 5671 5669 5667 5666 5665 5664 5664 5664 5664 5664 5663 5662 5661 5659 5657 5654 5652 5651 5649 5648 5647 5645 5644 5643 5641 5639 5637 5635 5633
5642 5640 5650 5665 5674 5673 5665 5662 5669 5665 5663 5663 5665 5663 5661 5665 5664 5662 5660 5659 5658 5657 5657 5656 5655 5655 5653 5651 5650 5648 5646 5644 5643 5641 5639 5637 5636 5635 5635 5633 5631 5629 5628 5626
5636 5629 5632 5652 5666 5671 5661 5647 5659 5658 5654 5653 5651 5639 5643 5654 5655 5654 5653 5651 5650 5649 5648 5646 5646 5646 5643 5641 5640 5639 5638 5638 5636 5634 5631 5629 5628 5627 5626 5626 5624 5622 5620 5618
5630 5628 5638 5651 5657 5657 5635 5633 5646 5648 5646 5643 5637 5635 5640 5645 5645 5644 5643 5642 5640 5639 5637 5637 5638 5637 5634 5632 5631 5632 5632 5631 5628 5626 5623 5622 5620 5619 5617 5616 5615 5614 5612 5610
5628 5621 5625 5646 5645 5635 5632 5639 5639 5637 5636 5633 5632 5633 5634 5633 5632 5632 5631 5630 5629 5627 5627 5628 5628 5627 5624 5623 5625 5625 5624 5621 5619 5618 5616 5615 5612 5610 5608 5606 5604 5603 5602 5600
5630 5627 5636 5639 5636 5635 5635 5631 5630 5628 5627 5625 5623 5623 5623 5623 5622 5622 5621 5619 5619 5618 5617 5618 5618 5617 5615 5615 5616 5616 5614 5612 5610 5609 5607 5606 5603 5600 5598 5596 5594 5592 5591 5589
5626 5629 5630 5629 5629 5628 5626 5623 5622 5620 5618 5616 5613 5613 5612 5612 5612 5612 5611 5610 5609 5608 5607 5607 5608 5608 5607 5607 5607 5607 5604 5603 5601 5600 5598 5595 5593 5591 5588 5586 5584 5582 5580 5578
5617 5621 5620 5619 5619 5618 5617 5615 5613 5611 5610 5608 5605 5604 5603 5602 5603 5602 5602 5601 5600 5599 5598 5598 5598 5598 5599 5599 5599 5597 5596 5595 5593 5591 5588 5585 5582 5579 5578 5576 5575 5572 5570 5568
5605 5612 5609 5608 5611 5610 5605 5603 5601 5599 5598 5599 5597 5595 5595 5594 5594 5593 5593 5593 5592 5591 5590 5589 5589 5589 5589 5590 5590 5588 5587 5586 5583 5581 5578 5574 5571 5568 5566 5565 5564 5563 5560 5557
5607 5609 5606 5604 5604 5601 5597 5594 5592 5591 5589 5588 5589 5588 5587 5585 5585 5585 5584 5583 5582 5581 5581 5580 5580 5580 5580 5580 5580 5578 5577 5576 5574 5572 5569 5565 5563 5560 5556 5554 5553 5551 5549 5547
5602 5599 5594 5594 5592 5591 5589 5586 5585 5583 5582 5581 5581 5580 5579 5578 5577 5576 5575 5575 5573 5572 5571 5571 5570 5570 5571 5570 5570 5569 5568 5567 5565 5562 5560 5557 5554 5552 5550 5546 5542 5540 5538 5536
5592 5590 5587 5586 5584 5581 5579 5577 5575 5573 5573 5573 5573 5572 5570 5569 5568 5567 5567 5566 5564 5562 5562 5562 5561 5560 5560 5560 5559 5559 5557 5556 5555 5553 5550 5548 5545 5543 5540 5538 5534 5531 5527 5524
5585 5582 5579 5577 5574 5572 5569 5567 5564 5564 5564 5564 5564 5563 5562 5561 5560 5558 5557 5556 5554 5553 5552 5552 5551 5551 5551 5550 5549 5548 5547 5546 5545 5542 5540 5538 5535 5532 5529 5527 5523 5520 5516 5512
5575 5572 5570 5567 5565 5564 5562 5560 5558 5556 5555 5555 5555 5556 5555 5553 5551 5550 5549 5548 5546 5544 5543 5542 5542 5542 5542 5541 5539 5538 5537 5536 5534 5531 5529 5527 5524 5521 5519 5516 5512 5507 5504 5501
5572 5569 5565 5562 5560 5558 5556 5554 5552 5550 5548 5549 5549 5548 5546 5545 5543 5541 5540 5539 5538 5536 5534 5534 5533 5533 5532 5531 5530 5529 5528 5526 5524 5521 5519 5516 5513 5511 5508 5505 5501 5496 5492 5489
5566 5563 5560 5557 5555 5552 5551 5549 5547 5544 5543 5542 5541 5539 5538 5536 5535 5533 5532 5530 5528 5526 5526 5526 5525 5524 5522 5521 5520 5519 5518 5515 5513 5511 5509 5507 5503 5500 5497 5494 5490 5486 5482 5479
5558 5555 5552 5550 5548 5546 5544 5542 5541 5538 5536 5534 5533 5531 5530 5529 5527 5525 5523 5521 5519 5518 5517 5516 5515 5514 5513 5512 5510 5509 5507 5506 5503 5501 5498 5496 5493 5490 5487 5484 5480 5476 5472 5469
5549 5547 5544 5542 5541 5539 5537 5535 5532 5530 5528 5527 5525 5523 5522 5520 5519 5517 5514 5511 5510 5509 5508 5507 5505 5504 5503 5501 5500 5498 5497 5495 5493 5490 5488 5485 5483 5480 5477 5474 5470 5467 5463 5460
5541 5539 5537 5536 5533 5531 5529 5527 5525 5523 5520 5519 5517 5516 5513 5511 5510 5508 5506 5503 5502 5500 5499 5497 5496 5494 5493 5491 5489 5488 5487 5485 5482 5480 5477 5475 5473 5470 5467 5464 5460 5457 5454 5451
5534 5532 5530 5528 5525 5523 5521 5519 5517 5514 5512 5510 5509 5507 5505 5502 5501 5498 5496 5494 5494 5492 5490 5488 5487 5485 5484 5481 5479 5478 5476 5474 5472 5469 5467 5465 5463 5460 5457 5454 5451 5448 5444 5442
5526 5524 5522 5520 5518 5515 5512 5510 5508 5506 5504 5502 5500 5498 5496 5494 5492 5490 5488 5487 5485 5483 5480 5479 5478 5476 5474 5471 5469 5468 5466 5464 5462 5460 5457 5455 5453 5450 5447 5444 5441 5438 5435 5432
5518 5515 5514 5512 5509 5507 5505 5503 5500 5497 5494 5492 5491 5489 5488 5486 5483 5481 5479 5477 5476 5473 5471 5470 5469 5466 5464 5462 5460 5458 5457 5455 5453 5450 5447 5445 5442 5440 5437 5434 5431 5428 5425 5423
5509 5507 5506 5504 5503 5500 5497 5495 5491 5488 5485 5483 5481 5480 5478 5477 5475 5473 5470 5468 5467 5464 5462 5460 5458 5456 5454 5452 5450 5449 5447 5446 5443 5440 5437 5435 5432 5429 5427 5424 5421 5418 5416 5413
5501 5499 5497 5495 5494 5492 5490 5487 5483 5480 5477 5475 5472 5471 5469 5468 5465 5463 5461 5459 5457 5455 5453 5451 5449 5447 5445 5443 5441 5440 5438 5436 5433 5430 5427 5425 5422 5419 5417 5414 5411 5408 5406 5403